Location: Caltech
(34.1382°N, 118.1253°W)
Time: 01:26:25
(UTC-07:00)

KITSAT 1 - Visible Passes

Search period start: 27 May 2016 00:00
Search period end: 06 June 2016 00:00
Orbit: 1305 x 1325 km, 66.1° (Epoch: 27 May)

Date Brightness Start Highest point End Pass type
(mag) Time Alt. Az. Time Alt. Az. Time Alt. Az.
27 May 11.0 21:37:07 10° NNW 21:44:33 38° NE 21:48:44 23° ESE visible
27 May 10.7 23:32:26 10° NW 23:39:57 44° WSW 23:40:43 43° WSW visible
28 May 10.5 21:52:54 10° NNW 22:00:52 56° ENE 22:04:28 33° ESE visible
28 May 11.3 23:49:10 10° NW 23:55:43 28° WSW 23:56:27 28° WSW visible
29 May 10.2 22:08:52 10° NNW 22:17:01 81° ENE 22:20:15 41° SE visible
30 May 11.9 00:06:38 10° WNW 00:11:23 17° WSW 00:12:14 17° WSW visible
30 May 11.5 20:30:30 10° N 20:37:01 26° NE 20:43:28 10° ESE visible
30 May 10.3 22:25:00 10° NNW 22:33:02 69° WSW 22:36:04 41° S visible
31 May 11.0 20:46:06 10° NNW 20:53:30 37° NE 20:59:56 13° ESE visible
31 May 10.9 22:41:21 10° NW 22:48:55 45° WSW 22:51:56 33° SSW visible
01 Jun 10.5 21:01:52 10° NNW 21:09:48 54° ENE 21:15:50 18° SE visible
01 Jun 11.5 22:58:04 10° NW 23:04:43 29° WSW 23:07:50 23° SW visible
02 Jun 10.2 21:17:49 10° NNW 21:25:58 79° ENE 21:31:47 21° SSE visible
02 Jun 12.0 23:15:27 10° WNW 23:20:23 18° WSW 23:23:46 14° SW visible
03 Jun 10.4 21:33:57 10° NNW 21:42:00 71° WSW 21:47:47 21° SSE visible
04 Jun 10.9 21:50:17 10° NW 21:57:54 47° WSW 22:03:49 17° S visible
05 Jun 11.6 22:06:58 10° NW 22:13:42 30° WSW 22:19:56 12° SSW visible
